sat.trackr.live / text

‹ back to catalog

SJ-11-03

NORAD 37730 · 2011-030A

PAYLOAD ACTIVE UNKNOWN

§ Identity

Operator
Country
PRC
Launch date
2011-07-06
Launch site
JSC
Launch vehicle
Mass (kg)
RCS (m²)
2.40

External: N2YO · Heavens-Above · Gunter

§ Orbital elements

Epoch: 2026-09-20T04:40:18.160896Z

Period
98.33 min
Inclination
97.9458°
Eccentricity
0.0009656
Mean motion
14.64414519 rev/d
Perigee alt
672.1 km
Apogee alt
685.8 km
Semi-major
7,057.1 km
B*
7.1730e-5
RAAN
223.8688°
Arg perigee
90.9026°
Mean anomaly
39.0677°
Rev number
81,101

§ Raw data

SJ-11-031 37730U 11030A   26263.19465464  .00000334  00000+0  71730-4 0  99942 37730  97.9458 223.8688 0009656  90.9026  39.0677 14.64414519811015

JSON: /api/v1/satellites/37730 · /tle

For live sub-satellite position, see the globe view (requires WebGL).

§ Visibility from observer

Set your observer location to see the next 7 days of passes ≥ 10°. The values pass through the URL so the page stays shareable.

No JS? Fill the form by hand. The geolocation button needs JavaScript.